W1REH Weather Reports


Display with metric or nautical units.
time (UTC)temp
F
wind
direction
speed
MPH
gust
MPH
rain 1hr
in
rain 24hr
in
rain mn
in
humidity
%
barometer
mb
20260502203104 50 300 0.0 4.0 0.00 0.03 0.03 58 1009.9
20260502202601 50 300 0.0 5.0 0.00 0.03 0.03 60 1009.9
20260502202059 50 0 2.0 9.0 0.00 0.03 0.03 64 1010.0
20260502201558 51 317 3.0 10.0 0.00 0.03 0.03 68 1010.0
20260502201100 52 290 4.0 10.0 0.00 0.03 0.03 70 1010.1
20260502200600 53 302 6.0 10.0 0.00 0.03 0.03 70 1010.0
20260502200100 54 306 6.0 10.0 0.00 0.03 0.03 69 1009.8
20260502195557 55 298 2.0 9.0 0.00 0.03 0.03 68 1009.7
20260502195058 55 269 0.0 7.0 0.00 0.03 0.03 67 1009.6
20260502194558 56 274 0.0 3.0 0.00 0.03 0.03 66 1009.6
20260502194101 56 0 0.0 3.0 0.00 0.03 0.03 65 1009.5
20260502193600 56 0 0.0 6.0 0.00 0.03 0.03 66 1009.6
20260502193101 56 268 0.0 6.0 0.00 0.03 0.03 66 1009.6
20260502192558 55 111 2.0 6.0 0.00 0.03 0.03 65 1009.6
20260502192059 56 253 0.0 4.0 0.00 0.03 0.03 67 1009.7
20260502191600 55 0 0.0 5.0 0.00 0.03 0.03 66 1009.9
20260502191059 55 0 0.0 5.0 0.00 0.03 0.03 67 1009.9
20260502190558 55 241 0.0 4.0 0.00 0.03 0.03 66 1010.0
20260502190100 55 0 1.0 4.0 0.00 0.03 0.03 65 1010.0
20260502185559 55 240 0.0 4.0 0.00 0.03 0.03 65 1010.0
20260502185058 55 139 0.0 4.0 0.00 0.03 0.03 65 1010.0
20260502184605 55 0 0.0 5.0 0.00 0.03 0.03 66 1009.9
20260502184058 55 306 1.0 7.0 0.00 0.03 0.03 65 1010.0
20260502183558 55 0 1.0 7.0 0.00 0.03 0.03 66 1010.0
20260502183100 55 126 2.0 7.0 0.00 0.03 0.03 64 1010.0
20260502182557 55 122 1.0 6.0 0.00 0.03 0.03 66 1010.0
20260502182057 55 231 2.0 6.0 0.00 0.03 0.03 66 1009.9
20260502181558 56 115 2.0 4.0 0.00 0.03 0.03 65 1009.9
20260502181058 57 144 0.0 6.0 0.00 0.03 0.03 64 1009.9
20260502180559 57 0 1.0 7.0 0.00 0.03 0.03 66 1010.0
20260502180109 56 252 1.0 7.0 0.00 0.03 0.03 64 1009.9
20260502170109 53 280 0.0 6.0 0.00 0.03 0.03 69 1010.6
20260502164100 53 0 0.0 2.0 0.00 0.03 0.03 63 1010.6
20260502163602 52 0 0.0 2.0 0.00 0.03 0.03 62 1010.6
20260502163059 52 0 0.0 2.0 0.00 0.03 0.03 58 1010.8
20260502162559 52 0 0.0 2.0 0.00 0.03 0.03 58 1010.8
20260502162059 52 0 0.0 2.0 0.00 0.03 0.03 54 1010.9
20260502161600 52 0 0.0 2.0 0.00 0.03 0.03 54 1011.0
20260502161059 52 0 0.0 2.0 0.00 0.03 0.03 52 1011.0
20260502160558 52 0 0.0 1.0 0.00 0.03 0.03 52 1011.0
20260502152100 50 0 0.0 2.0 0.00 0.03 0.03 23 1011.2
20260502151606 50 0 0.0 1.0 0.00 0.03 0.03 19 1011.5
20260502151058 50 0 0.0 2.0 0.00 0.03 0.03 20 1011.6
20260502150558 49 0 0.0 2.0 0.00 0.03 0.03 21 1011.6
20260502130558 47 0 0.0 0.0 0.02 0.02 0.02 14 1012.2
20260502123558 47 0 0.0 0.0 0.00 0.00 0.00 16 1012.3
20260502123101 47 0 0.0 0.0 0.00 0.00 0.00 16 1012.3
20260502122601 47 0 0.0 0.0 0.00 0.00 0.00 16 1012.3
20260502122058 47 0 0.0 1.0 0.00 0.00 0.00 16 1012.4
20260502121559 47 0 0.0 1.0 0.00 0.00 0.00 17 1012.3
20260502121058 47 0 0.0 1.0 0.00 0.00 0.00 18 1012.2
20260502120557 47 0 0.0 1.0 0.00 0.00 0.00 19 1012.1
20260502120104 47 0 0.0 1.0 0.00 0.00 0.00 19 1011.8
20260502115601 47 0 0.0 1.0 0.00 0.00 0.00 19 1011.9
20260502115104 47 0 0.0 1.0 0.00 0.00 0.00 21 1011.7
20260502114559 46 0 0.0 0.0 0.00 0.00 0.00 22 1011.6
20260502114059 46 0 0.0 0.0 0.00 0.00 0.00 23 1011.4
20260502113602 46 0 0.0 0.0 0.00 0.00 0.00 24 1011.4
20260502113058 46 0 0.0 0.0 0.00 0.00 0.00 25 1011.6
20260502112558 46 0 0.0 0.0 0.00 0.00 0.00 27 1011.7
20260502112058 46 0 0.0 0.0 0.00 0.00 0.00 29 1011.6
20260502111620 46 0 0.0 0.0 0.00 0.00 0.00 29 1011.9
20260502111102 46 0 0.0 0.0 0.00 0.00 0.00 31 1011.7
20260502110558 46 0 0.0 0.0 0.00 0.00 0.00 32 1011.6
20260502110059 46 0 0.0 0.0 0.00 0.00 0.00 33 1011.6
20260502105600 46 0 0.0 0.0 0.00 0.00 0.00 34 1011.5
20260502105059 46 0 0.0 0.0 0.00 0.00 0.00 33 1011.5
20260502104558 46 0 0.0 0.0 0.00 0.00 0.00 33 1011.4
20260502104058 46 0 0.0 0.0 0.00 0.00 0.00 34 1011.3
20260502103559 46 0 0.0 0.0 0.00 0.00 0.00 34 1011.2
20260502103110 46 0 0.0 0.0 0.00 0.00 0.00 35 1011.1
20260502102600 46 0 0.0 0.0 0.00 0.00 0.00 35 1011.0
20260502102058 46 0 0.0 0.0 0.00 0.00 0.00 35 1011.1
20260502101611 46 0 0.0 0.0 0.00 0.00 0.00 36 1011.1
20260502101058 46 0 0.0 0.0 0.00 0.00 0.00 36 1011.1
20260502100558 46 0 0.0 2.0 0.00 0.00 0.00 36 1011.0
20260502100104 46 0 0.0 2.0 0.00 0.00 0.00 37 1010.9
20260502091058 46 0 0.0 1.0 0.00 0.00 0.00 44 1010.7
20260502090601 46 0 0.0 0.0 0.00 0.00 0.00 45 1010.6
20260502090104 46 0 0.0 0.0 0.00 0.00 0.00 45 1010.6
20260502071058 47 0 0.0 0.0 0.00 0.00 0.00 66 1011.0
20260502070600 47 0 0.0 0.0 0.00 0.00 0.00 67 1011.1
20260502070100 47 0 0.0 0.0 0.00 0.00 0.00 66 1011.0
20260502065559 47 0 0.0 1.0 0.00 0.00 0.00 65 1011.0
20260502065057 47 0 0.0 1.0 0.00 0.00 0.00 65 1011.1
20260502064603 47 0 0.0 1.0 0.00 0.00 0.00 64 1011.1
20260502064102 47 0 0.0 1.0 0.00 0.00 0.00 66 1010.9
20260502063559 47 0 0.0 2.0 0.00 0.00 0.00 69 1011.0
20260502063101 47 0 0.0 2.0 0.00 0.00 0.00 70 1011.2
20260502062558 47 0 0.0 1.0 0.00 0.00 0.00 70 1011.4
20260502062059 47 0 0.0 1.0 0.00 0.00 0.00 71 1011.5
20260502061558 47 0 0.0 1.0 0.00 0.00 0.00 71 1011.3
20260502061101 46 0 0.0 0.0 0.00 0.00 0.00 71 1011.3
20260502060558 46 0 0.0 0.0 0.00 0.00 0.00 71 1011.1
20260502060057 46 0 0.0 0.0 0.00 0.00 0.00 71 1011.0
20260502055600 46 0 0.0 0.0 0.00 0.00 0.00 71 1011.1
20260502055058 46 0 0.0 0.0 0.00 0.00 0.00 71 1011.2
20260502054603 46 0 0.0 0.0 0.00 0.00 0.00 71 1011.1
20260502054058 46 0 0.0 0.0 0.00 0.00 0.00 71 1011.1
20260502053558 46 0 0.0 1.0 0.00 0.00 0.00 70 1011.1
20260502053058 46 0 0.0 1.0 0.00 0.00 0.00 70 1011.1
20260502052558 46 0 0.0 1.0 0.00 0.00 0.00 71 1011.0
20260502052102 46 0 0.0 0.0 0.00 0.00 0.00 71 1011.2
20260502051558 46 0 0.0 0.0 0.00 0.00 0.00 71 1011.3
20260502051058 46 0 0.0 0.0 0.00 0.00 0.00 71 1011.3
20260502050558 46 0 0.0 0.0 0.00 0.00 0.00 71 1011.2
20260502050058 46 0 0.0 0.0 0.00 0.00 0.00 71 1011.2
20260502045559 46 0 0.0 0.0 0.00 0.00 0.00 71 1011.2
20260502045059 46 0 0.0 0.0 0.00 0.00 0.00 71 1011.3
20260502044600 46 0 0.0 0.0 0.00 0.00 0.00 70 1011.2
20260502044058 46 0 0.0 0.0 0.00 0.00 0.00 70 1011.2
20260502043558 46 0 0.0 0.0 0.00 0.00 0.00 71 1011.3
20260502043108 46 0 0.0 0.0 0.00 0.00 0.00 71 1011.3
20260502042601 46 0 0.0 0.0 0.00 0.00 0.00 71 1011.2
20260502042058 46 0 0.0 0.0 0.00 0.00 0.00 70 1011.3
20260502041558 46 0 0.0 0.0 0.00 0.00 0.00 71 1011.4
20260502041058 46 0 0.0 0.0 0.00 0.00 0.00 70 1011.5
20260502040559 46 0 0.0 0.0 0.00 0.00 0.00 70 1011.5
20260502040059 46 0 0.0 0.0 0.00 0.00 0.00 70 1011.4
20260502035600 46 0 0.0 0.0 0.00 0.00 0.00 70 1011.5
20260502035059 46 0 0.0 0.0 0.00 0.00 0.00 69 1011.4
20260502034558 46 0 0.0 0.0 0.00 0.00 0.00 68 1011.4
20260502034059 46 0 0.0 0.0 0.00 0.00 0.00 68 1011.5
20260502033558 46 0 0.0 0.0 0.00 0.00 0.00 67 1011.5
20260502033058 46 0 0.0 0.0 0.00 0.00 0.00 68 1011.4
20260502032558 46 0 0.0 0.0 0.00 0.00 0.00 67 1011.6
20260502032101 46 0 0.0 1.0 0.00 0.00 0.00 67 1011.4
20260502031558 46 0 0.0 1.0 0.00 0.00 0.00 66 1011.5
20260502031102 46 0 0.0 0.0 0.00 0.00 0.00 66 1011.4
20260502030558 46 0 0.0 2.0 0.00 0.00 0.00 65 1011.4
20260502030100 46 0 0.0 2.0 0.00 0.00 0.00 64 1011.4
20260502025559 46 0 0.0 2.0 0.00 0.00 0.00 65 1011.4
20260502025102 46 0 0.0 2.0 0.00 0.00 0.00 65 1011.3
20260502024559 46 0 0.0 2.0 0.00 0.00 0.00 66 1011.3
20260502024058 46 295 0.0 2.0 0.00 0.00 0.00 69 1011.2
20260502023601 46 0 0.0 0.0 0.00 0.00 0.00 70 1011.1
20260502023102 46 0 0.0 0.0 0.00 0.00 0.00 69 1011.2
20260502022559 46 0 0.0 0.0 0.00 0.00 0.00 69 1011.2
20260502022055 46 0 0.0 0.0 0.00 0.00 0.00 69 1011.1
20260502021603 46 0 0.0 0.0 0.00 0.00 0.00 69 1011.1
20260502021055 46 0 0.0 0.0 0.00 0.00 0.00 69 1011.0
20260502020559 46 0 0.0 0.0 0.00 0.00 0.00 68 1011.1
20260502015601 46 0 0.0 0.0 0.00 0.00 0.00 67 1011.2
20260502015059 47 0 0.0 0.0 0.00 0.00 0.00 66 1011.1
20260502014559 47 0 0.0 0.0 0.00 0.00 0.00 66 1011.0
20260502014059 47 0 0.0 0.0 0.00 0.00 0.00 66 1011.0
20260502013558 47 0 0.0 0.0 0.00 0.00 0.00 65 1011.0
20260502013102 47 0 0.0 0.0 0.00 0.00 0.00 64 1011.1
20260502012558 48 0 0.0 0.0 0.00 0.00 0.00 65 1011.1
20260502012100 48 0 0.0 0.0 0.00 0.00 0.00 64 1011.0
20260502011604 48 0 0.0 0.0 0.00 0.00 0.00 62 1011.0
20260502011059 49 0 0.0 0.0 0.00 0.00 0.00 61 1010.8
20260502010558 49 0 0.0 0.0 0.00 0.00 0.00 59 1010.7
20260502010100 49 0 0.0 0.0 0.00 0.00 0.00 58 1010.7
20260502005558 49 0 0.0 0.0 0.00 0.00 0.00 56 1010.6
20260502005059 50 0 0.0 0.0 0.00 0.00 0.00 58 1010.6
20260502004609 51 0 0.0 0.0 0.00 0.00 0.00 57 1010.7
20260502004100 51 0 0.0 0.0 0.00 0.00 0.00 56 1010.5
20260502003559 52 0 0.0 0.0 0.00 0.00 0.00 52 1010.4
20260502003108 53 0 0.0 0.0 0.00 0.00 0.00 51 1010.5
20260502002558 53 0 0.0 0.0 0.00 0.00 0.00 49 1010.3
20260502002058 54 0 0.0 0.0 0.00 0.00 0.00 47 1010.2
20260502001608 54 0 0.0 0.0 0.00 0.00 0.00 46 1010.0
20260502001057 55 0 0.0 0.0 0.00 0.00 0.00 47 1010.0
20260502000559 55 0 0.0 0.0 0.00 0.00 0.00 45 1010.0
20260502000117 56 0 0.0 0.0 0.00 0.00 0.00 43 1009.8
20260501235558 56 0 0.0 0.0 0.00 0.00 0.00 45 1009.8
20260501235102 57 0 0.0 0.0 0.00 0.00 0.00 41 1009.7
20260501234559 58 0 0.0 2.0 0.00 0.00 0.00 42 1009.6
20260501234059 58 0 0.0 2.0 0.00 0.00 0.00 40 1009.6
20260501233627 58 0 0.0 5.0 0.00 0.00 0.00 37 1009.5
20260501233102 59 295 0.0 5.0 0.00 0.00 0.00 37 1009.4
20260501232558 59 295 1.0 5.0 0.00 0.00 0.00 36 1009.3
20260501232059 59 0 0.0 2.0 0.00 0.00 0.00 36 1009.3
20260501231606 59 0 0.0 4.0 0.00 0.00 0.00 38 1009.1
20260501231059 59 297 1.0 4.0 0.00 0.00 0.00 35 1009.2
20260501230600 59 295 2.0 6.0 0.00 0.00 0.00 34 1009.1
20260501230059 60 295 2.0 6.0 0.00 0.00 0.00 34 1009.0
20260501225601 60 286 1.0 4.0 0.00 0.00 0.00 35 1009.0
20260501225058 60 0 0.0 4.0 0.00 0.00 0.00 34 1009.0
20260501224600 60 301 0.0 5.0 0.00 0.00 0.00 34 1009.0
20260501224103 60 0 1.0 7.0 0.00 0.00 0.00 35 1009.0
20260501223600 60 302 2.0 7.0 0.00 0.00 0.00 34 1009.1
20260501223107 61 303 3.0 7.0 0.00 0.00 0.00 34 1009.1
20260501222559 61 0 1.0 5.0 0.00 0.00 0.00 34 1009.1
20260501222100 61 304 1.0 7.0 0.00 0.00 0.00 35 1009.0
20260501221601 61 0 1.0 7.0 0.00 0.00 0.00 34 1009.0
20260501221101 61 303 2.0 7.0 0.00 0.00 0.00 33 1009.0
20260501220559 61 298 3.0 5.0 0.00 0.00 0.00 34 1008.8
20260501220106 61 309 1.0 4.0 0.00 0.00 0.00 33 1008.9
20260501215600 61 0 0.0 9.0 0.00 0.00 0.00 34 1008.9
20260501215100 61 297 2.0 9.0 0.00 0.00 0.00 34 1008.8
20260501214600 61 301 2.0 7.0 0.00 0.00 0.00 34 1008.8
20260501214101 61 311 2.0 6.0 0.00 0.00 0.00 34 1008.8
20260501213600 61 296 2.0 7.0 0.00 0.00 0.00 35 1008.7
20260501213113 61 352 3.0 9.0 0.00 0.00 0.00 34 1008.7
20260501212559 61 0 1.0 11.0 0.00 0.00 0.00 33 1008.6
20260501212100 61 304 4.0 11.0 0.00 0.00 0.00 32 1008.7
20260501211600 61 302 6.0 11.0 0.00 0.00 0.00 32 1008.6
20260501211057 62 283 2.0 12.0 0.00 0.00 0.00 32 1008.6
20260501210558 62 305 5.0 12.0 0.00 0.00 0.00 32 1008.6
20260501205559 62 342 4.0 10.0 0.00 0.00 0.00 32 1008.5
20260501205059 62 315 4.0 10.0 0.00 0.00 0.00 31 1008.5
20260501204559 62 313 6.0 12.0 0.00 0.00 0.00 31 1008.5
20260501204100 63 312 3.0 12.0 0.00 0.00 0.00 30 1008.5
20260501203600 63 309 2.0 12.0 0.00 0.00 0.00 31 1008.3